Regional Weather Roundup
Issued by NWS

Home | Current Version | Previous Version | Graphics & Text | Print | Product List | Glossary On
Versions: 1 2 3 4 5 6 7 8 9 10 11 12 13 14 15 16 17 18 19 20 21 22 23 24 25 26 27 28 29 30 31 32 33 34 35 36 37 38 39 40 41 42 43 44 45 46 47 48 49 50
000
ASUS43 KFSD 231502
RWRSD

WEATHER ROUNDUP FOR SOUTH DAKOTA
NATIONAL WEATHER SERVICE SIOUX FALLS SD
1000 AM CDT SUN APR 23 2017

NOTE: "FAIR" INDICATES FEW OR NO CLOUDS BELOW 12,000 FEET WITH NO
SIGNIFICANT WEATHER AND/OR OBSTRUCTIONS TO VISIBILITY.


SDZ001>005-009-010-012>017-231600-
NORTHWEST AND NORTH CENTRAL SOUTH DAKOTA

CITY           SKY/WX    TMP DP  RH WIND       PRES   REMARKS
BUFFALO          N/A     35 N/A N/A NE20      29.81R WCI  24
FAITH            N/A     43  39  86 NE13      29.84F
MOBRIDGE       CLOUDY    40  33  76 E21G31    29.92F
$$

SDZ012>016-024>037-041>051-057-063-072>074-231600-
SOUTHWEST AND SOUTH CENTRAL SOUTH DAKOTA

CITY           SKY/WX    TMP DP  RH WIND       PRES   REMARKS
RAPID CTY ARPT CLOUDY    51  37  58 S10       29.81F
PIERRE         CLOUDY    56  35  45 S6        29.88F
CUSTER         CLOUDY    48  28  46 W8        29.88F
ELLSWORTH AFB  CLOUDY    52  37  57 S8        29.80  HAZE
PHILIP         MOSUNNY   59  39  47 S15       29.84F
PINE RIDGE     CLOUDY    52  37  56 SW15G28   29.87F
SPEARFISH      FAIR      52  37  58 CALM      29.84S
WINNER         FAIR      60  34  37 SW26G35   29.94F
$$

SDZ004>011-016>023-039-040-231600-
NORTHEAST SOUTH DAKOTA

CITY           SKY/WX    TMP DP  RH WIND       PRES   REMARKS
ABERDEEN       CLOUDY    44  37  76 NE16      30.02F
WATERTOWN      MOSUNNY   53  40  61 SE8       30.01F
BROOKINGS      MOSUNNY   60  36  40 S13       30.02F
SISSETON         N/A     45  40  82 E10       30.05F
$$

SDZ017-020-022-023-036>040-048>070-231600-
SOUTHEAST SOUTH DAKOTA

CITY           SKY/WX    TMP DP  RH WIND       PRES   REMARKS
SIOUX FALLS    MOSUNNY   59  37  44 SW14G20   30.04F
HURON          CLOUDY    52  38  58 CALM      30.00S
CHAMBERLAIN    SUNNY     59  38  45 S17G23    29.97F
MITCHELL       SUNNY     62  36  37 SW13G24   30.01F
YANKTON        SUNNY     61  34  36 S18G24    30.04F
$$

ABBREVIATIONS USED IN REMARKS
   TC - TEMPERATURE IN CELSIUS
  WCI - WIND CHILL INDEX
   HX - HEAT INDEX
  VSB - VISIBILITY




USA.gov is the U.S. government's official web portal to all federal, state and local government web resources and services.